Time,TemperatureF,DewpointF,PressureIn,WindDirection,WindDirectionDegrees,WindSpeedMPH,WindSpeedGustMPH,Humidity,HourlyPrecipIn,Conditions,Clouds,dailyrainin,SolarRadiationWatts/m^2,SoftwareType,DateUTC
2013-06-14 00:01:00,63.5,63.5,30.00,SW,223,6.1,6.1,100,0.00,,,0.00,0,TxWx,2013-06-14 04:01:00,
2013-06-14 00:02:00,63.4,63.4,30.00,SW,214,8.5,9.0,100,0.00,,,0.00,0,TxWx,2013-06-14 04:02:00,
2013-06-14 00:07:00,62.8,62.8,30.00,SSW,209,5.0,6.0,100,0.00,,,0.01,0,TxWx,2013-06-14 04:07:00,
2013-06-14 00:12:00,62.4,62.4,30.01,SW,234,7.4,8.0,100,0.00,,,0.01,0,TxWx,2013-06-14 04:12:00,
2013-06-14 00:17:00,62.0,62.0,30.01,South,188,2.4,3.0,100,0.00,,,0.01,0,TxWx,2013-06-14 04:17:00,
2013-06-14 00:22:00,61.7,61.7,30.01,SW,228,5.0,6.0,100,0.00,,,0.01,0,TxWx,2013-06-14 04:22:00,
2013-06-14 00:27:00,61.6,61.6,30.02,WSW,246,3.5,3.5,100,0.00,,,0.01,0,TxWx,2013-06-14 04:27:00,
2013-06-14 00:32:00,61.5,61.5,30.02,SW,218,7.4,7.4,100,0.00,,,0.01,0,TxWx,2013-06-14 04:32:00,
2013-06-14 00:37:00,61.5,61.5,30.02,SSW,209,2.4,3.0,100,0.00,,,0.01,0,TxWx,2013-06-14 04:37:00,
2013-06-14 00:42:00,61.5,61.5,30.02,SSW,204,2.4,3.0,100,0.00,,,0.01,0,TxWx,2013-06-14 04:42:00,
2013-06-14 00:47:00,61.7,61.3,30.03,South,176,3.5,3.5,98,0.00,,,0.01,0,TxWx,2013-06-14 04:47:00,
2013-06-14 00:52:00,61.6,61.3,30.03,SSW,197,2.4,3.0,98,0.00,,,0.01,0,TxWx,2013-06-14 04:52:00,
2013-06-14 00:57:00,61.4,61.4,30.03,SW,221,2.4,3.0,100,0.00,,,0.01,0,TxWx,2013-06-14 04:57:00,
2013-06-14 01:02:00,61.3,61.3,30.03,SW,223,3.5,3.5,100,0.00,,,0.01,0,TxWx,2013-06-14 05:02:00,
2013-06-14 01:07:00,61.2,61.2,30.02,SW,236,7.4,7.4,100,0.00,,,0.01,0,TxWx,2013-06-14 05:07:00,
2013-06-14 01:12:00,61.1,61.1,30.02,SSW,203,1.1,2.0,100,0.00,,,0.01,0,TxWx,2013-06-14 05:12:00,
2013-06-14 01:17:00,61.0,61.0,30.03,SSW,193,3.5,3.5,100,0.00,,,0.01,0,TxWx,2013-06-14 05:17:00,
2013-06-14 01:22:00,61.0,60.6,30.03,South,174,6.1,6.1,98,0.00,,,0.01,0,TxWx,2013-06-14 05:22:00,
2013-06-14 01:27:00,61.2,60.3,30.03,WSW,241,2.4,2.4,96,0.00,,,0.01,0,TxWx,2013-06-14 05:27:00,
2013-06-14 02:41:00,59.4,58.5,30.03,SSW,199,1.1,2.0,96,0.00,,,0.01,0,TxWx,2013-06-14 06:41:00,
2013-06-14 02:46:00,59.4,58.0,30.03,SSE,168,2.4,3.0,95,0.00,,,0.01,0,TxWx,2013-06-14 06:46:00,
2013-06-14 02:51:00,59.3,57.8,30.02,SSW,207,0.0,1.0,94,0.00,,,0.01,0,TxWx,2013-06-14 06:51:00,
2013-06-14 02:56:00,59.4,58.0,30.03,SE,140,2.4,2.4,95,0.00,,,0.01,0,TxWx,2013-06-14 06:56:00,
2013-06-14 03:01:00,59.3,56.6,30.03,SSW,193,3.5,3.5,91,0.00,,,0.01,0,TxWx,2013-06-14 07:01:00,
2013-06-14 03:06:00,59.3,56.0,30.03,West,266,1.1,2.0,89,0.00,,,0.01,0,TxWx,2013-06-14 07:06:00,
2013-06-14 03:11:00,59.2,56.5,30.03,SW,220,3.5,3.5,90,0.00,,,0.01,0,TxWx,2013-06-14 07:11:00,
2013-06-14 03:16:00,59.0,56.8,30.02,West,278,1.1,1.1,92,0.00,,,0.01,0,TxWx,2013-06-14 07:16:00,
2013-06-14 03:21:00,58.7,57.4,30.02,SW,233,1.1,1.1,95,0.00,,,0.01,0,TxWx,2013-06-14 07:21:00,
2013-06-14 03:26:00,58.6,57.4,30.02,SW,234,0.0,0.0,95,0.00,,,0.01,0,TxWx,2013-06-14 07:26:00,
2013-06-14 03:31:00,58.5,57.0,30.02,SW,222,0.0,0.0,94,0.00,,,0.01,0,TxWx,2013-06-14 07:31:00,
2013-06-14 03:36:00,58.2,57.0,30.02,SSW,195,0.0,1.0,95,0.00,,,0.01,0,TxWx,2013-06-14 07:36:00,
2013-06-14 03:41:00,58.0,57.1,30.02,SW,216,0.0,1.0,96,0.00,,,0.01,0,TxWx,2013-06-14 07:41:00,
2013-06-14 03:46:00,58.0,57.0,30.02,West,265,0.0,1.0,96,0.00,,,0.01,0,TxWx,2013-06-14 07:46:00,
2013-06-14 03:51:00,57.9,57.4,30.02,SW,234,0.0,1.0,98,0.00,,,0.01,0,TxWx,2013-06-14 07:51:00,
2013-06-14 03:56:00,57.8,57.7,30.02,WSW,240,0.0,1.0,99,0.00,,,0.01,0,TxWx,2013-06-14 07:56:00,
2013-06-14 04:01:00,57.7,57.4,30.02,NNW,332,0.0,1.0,99,0.00,,,0.01,0,TxWx,2013-06-14 08:01:00,
2013-06-14 04:06:00,57.1,57.1,30.02,NNW,332,0.0,0.0,100,0.00,,,0.01,0,TxWx,2013-06-14 08:06:00,
2013-06-14 04:11:00,56.9,56.9,30.02,NNW,332,0.0,0.0,100,0.00,,,0.01,0,TxWx,2013-06-14 08:11:00,
2013-06-14 04:16:00,56.6,56.6,30.02,West,274,1.1,1.1,100,0.00,,,0.01,0,TxWx,2013-06-14 08:16:00,
2013-06-14 04:21:00,56.5,56.5,30.02,WNW,284,0.0,0.0,100,0.00,,,0.01,0,TxWx,2013-06-14 08:21:00,
2013-06-14 04:26:00,56.4,56.4,30.02,West,274,1.1,1.1,100,0.00,,,0.01,0,TxWx,2013-06-14 08:26:00,
2013-06-14 04:31:00,56.1,56.1,30.02,WNW,297,0.0,0.0,100,0.00,,,0.01,0,TxWx,2013-06-14 08:31:00,
2013-06-14 04:36:00,55.8,55.8,30.02,SW,227,1.1,2.0,100,0.00,,,0.01,0,TxWx,2013-06-14 08:36:00,
2013-06-14 04:41:00,55.8,55.8,30.02,WSW,247,1.1,2.0,100,0.00,,,0.01,0,TxWx,2013-06-14 08:41:00,
2013-06-14 04:46:00,55.8,55.8,30.02,NW,319,1.1,1.1,100,0.00,,,0.01,0,TxWx,2013-06-14 08:46:00,
2013-06-14 04:51:00,55.4,55.4,30.02,West,279,0.0,1.0,100,0.00,,,0.01,0,TxWx,2013-06-14 08:51:00,
2013-06-14 04:56:00,55.2,55.2,30.03,WNW,295,0.0,1.0,100,0.00,,,0.01,0,TxWx,2013-06-14 08:56:00,
2013-06-14 05:01:00,55.0,55.0,30.03,NNW,335,1.1,1.1,100,0.00,,,0.01,0,TxWx,2013-06-14 09:01:00,
2013-06-14 05:06:00,54.9,54.9,30.03,NNW,335,0.0,0.0,100,0.00,,,0.01,0,TxWx,2013-06-14 09:06:00,
2013-06-14 05:11:00,54.7,54.7,30.03,NNW,334,0.0,0.0,100,0.00,,,0.01,0,TxWx,2013-06-14 09:11:00,
2013-06-14 05:16:00,54.5,54.5,30.03,NNW,333,0.0,0.0,100,0.00,,,0.01,0,TxWx,2013-06-14 09:16:00,
2013-06-14 05:21:00,54.4,54.4,30.03,NNW,334,0.0,0.0,100,0.00,,,0.01,0,TxWx,2013-06-14 09:21:00,
2013-06-14 05:26:00,54.4,54.4,30.03,NW,304,0.0,0.0,100,0.00,,,0.01,0,TxWx,2013-06-14 09:26:00,
2013-06-14 05:31:00,54.5,54.5,30.04,West,277,1.1,1.1,100,0.00,,,0.01,0,TxWx,2013-06-14 09:31:00,
2013-06-14 05:36:00,54.8,54.8,30.04,WNW,293,1.1,2.0,100,0.00,,,0.01,0,TxWx,2013-06-14 09:36:00,
2013-06-14 05:41:00,54.9,54.9,30.04,WNW,300,0.0,0.0,100,0.00,,,0.01,0,TxWx,2013-06-14 09:41:00,
2013-06-14 05:46:00,54.9,54.9,30.05,West,275,1.1,1.1,100,0.00,,,0.01,0,TxWx,2013-06-14 09:46:00,
2013-06-14 05:51:00,54.9,54.9,30.05,WNW,299,0.0,0.0,100,0.00,,,0.01,0,TxWx,2013-06-14 09:51:00,
2013-06-14 05:56:00,55.0,55.0,30.05,SE,137,2.4,2.4,100,0.00,,,0.01,0,TxWx,2013-06-14 09:56:00,
2013-06-14 06:01:00,55.4,55.4,30.05,SW,225,1.1,2.0,100,0.00,,,0.01,0,TxWx,2013-06-14 10:01:00,
2013-06-14 06:06:00,55.8,55.8,30.05,SW,220,1.1,2.0,100,0.00,,,0.01,1,TxWx,2013-06-14 10:06:00,
2013-06-14 06:11:00,56.2,56.2,30.05,SW,221,1.1,1.1,100,0.00,,,0.01,1,TxWx,2013-06-14 10:11:00,
2013-06-14 06:16:00,56.2,56.2,30.06,WNW,287,0.0,0.0,100,0.00,,,0.01,1,TxWx,2013-06-14 10:16:00,
2013-06-14 06:21:00,56.0,56.0,30.06,WNW,286,0.0,0.0,100,0.00,,,0.01,2,TxWx,2013-06-14 10:21:00,
2013-06-14 06:26:00,55.7,55.7,30.06,SSW,210,0.0,0.0,100,0.00,,,0.01,2,TxWx,2013-06-14 10:26:00,
2013-06-14 06:31:00,55.6,55.6,30.06,SW,231,2.4,2.4,100,0.00,,,0.01,3,TxWx,2013-06-14 10:31:00,
2013-06-14 06:36:00,55.8,55.8,30.07,SW,236,1.1,2.0,100,0.00,,,0.01,4,TxWx,2013-06-14 10:36:00,
2013-06-14 06:41:00,55.6,55.6,30.07,West,261,1.1,2.0,100,0.00,,,0.01,5,TxWx,2013-06-14 10:41:00,
2013-06-14 06:46:00,55.6,55.6,30.07,West,272,1.1,1.1,100,0.00,,,0.01,6,TxWx,2013-06-14 10:46:00,
2013-06-14 06:51:00,55.4,55.4,30.07,WNW,301,0.0,0.0,100,0.00,,,0.01,6,TxWx,2013-06-14 10:51:00,
2013-06-14 06:56:00,55.1,55.1,30.07,WNW,301,0.0,0.0,100,0.00,,,0.01,7,TxWx,2013-06-14 10:56:00,
2013-06-14 07:01:00,55.1,55.1,30.08,West,262,0.0,0.0,100,0.00,,,0.01,7,TxWx,2013-06-14 11:01:00,
2013-06-14 07:06:00,55.0,55.0,30.07,NNW,340,0.0,0.0,100,0.00,,,0.01,7,TxWx,2013-06-14 11:06:00,
2013-06-14 07:11:00,55.0,55.0,30.07,SW,225,0.0,1.0,100,0.00,,,0.01,8,TxWx,2013-06-14 11:11:00,
2013-06-14 07:16:00,55.0,55.0,30.07,NW,308,0.0,0.0,100,0.00,,,0.01,8,TxWx,2013-06-14 11:16:00,
2013-06-14 07:21:00,54.9,54.9,30.08,NW,313,0.0,0.0,100,0.00,,,0.01,9,TxWx,2013-06-14 11:21:00,
2013-06-14 07:26:00,54.8,54.8,30.07,NW,315,0.0,0.0,100,0.00,,,0.01,9,TxWx,2013-06-14 11:26:00,
2013-06-14 07:31:00,54.8,54.8,30.07,NW,315,0.0,0.0,100,0.00,,,0.01,9,TxWx,2013-06-14 11:31:00,
2013-06-14 07:36:00,54.9,54.9,30.08,NW,315,0.0,0.0,100,0.00,,,0.01,10,TxWx,2013-06-14 11:36:00,
2013-06-14 07:41:00,54.8,54.8,30.08,NW,315,0.0,0.0,100,0.00,,,0.01,10,TxWx,2013-06-14 11:41:00,
2013-06-14 07:46:00,55.1,55.1,30.08,NW,315,0.0,0.0,100,0.00,,,0.01,11,TxWx,2013-06-14 11:46:00,
2013-06-14 07:51:00,55.5,55.5,30.08,NW,315,0.0,0.0,100,0.00,,,0.01,11,TxWx,2013-06-14 11:51:00,
2013-06-14 07:56:00,55.8,55.8,30.08,NW,315,0.0,0.0,100,0.00,,,0.01,12,TxWx,2013-06-14 11:56:00,
2013-06-14 08:01:00,56.0,56.0,30.08,NW,315,1.1,1.1,100,0.00,,,0.01,13,TxWx,2013-06-14 12:01:00,
2013-06-14 08:06:00,56.1,56.1,30.09,NW,315,1.1,1.1,100,0.00,,,0.01,14,TxWx,2013-06-14 12:06:00,
2013-06-14 08:11:00,56.4,56.4,30.09,NW,315,0.0,0.0,100,0.00,,,0.01,14,TxWx,2013-06-14 12:11:00,
2013-06-14 08:16:00,56.4,56.4,30.09,NW,315,0.0,0.0,100,0.00,,,0.01,15,TxWx,2013-06-14 12:16:00,
2013-06-14 08:21:00,56.3,56.3,30.09,NW,315,0.0,1.0,100,0.00,,,0.01,15,TxWx,2013-06-14 12:21:00,
2013-06-14 08:26:00,56.3,56.3,30.09,WNW,299,0.0,1.0,100,0.00,,,0.01,16,TxWx,2013-06-14 12:26:00,
2013-06-14 08:31:00,56.3,56.3,30.09,West,276,1.1,1.1,100,0.00,,,0.01,17,TxWx,2013-06-14 12:31:00,
2013-06-14 08:36:00,56.5,56.5,30.09,West,262,1.1,1.1,100,0.00,,,0.01,18,TxWx,2013-06-14 12:36:00,
2013-06-14 08:41:00,56.6,56.6,30.09,SE,125,1.1,1.1,100,0.00,,,0.01,19,TxWx,2013-06-14 12:41:00,
2013-06-14 08:46:00,56.6,56.6,30.10,ESE,107,1.1,1.1,100,0.00,,,0.01,20,TxWx,2013-06-14 12:46:00,
2013-06-14 08:51:00,57.0,57.0,30.10,East,81,0.0,0.0,100,0.00,,,0.01,21,TxWx,2013-06-14 12:51:00,
2013-06-14 08:56:00,57.2,57.2,30.10,ENE,78,1.1,1.1,99,0.00,,,0.01,22,TxWx,2013-06-14 12:56:00,
2013-06-14 09:01:00,57.7,57.0,30.10,East,95,1.1,1.1,97,0.00,,,0.01,23,TxWx,2013-06-14 13:01:00,
2013-06-14 09:06:00,57.8,57.5,30.10,East,95,1.1,1.1,98,0.00,,,0.01,24,TxWx,2013-06-14 13:06:00,
2013-06-14 09:11:00,57.6,57.4,30.10,SW,222,2.4,2.4,99,0.00,,,0.01,25,TxWx,2013-06-14 13:11:00,
2013-06-14 09:16:00,58.2,57.4,30.10,SSW,198,1.1,2.0,97,0.00,,,0.01,26,TxWx,2013-06-14 13:16:00,
2013-06-14 09:21:00,58.5,56.8,30.10,SW,218,1.1,1.1,94,0.00,,,0.01,27,TxWx,2013-06-14 13:21:00,
2013-06-14 09:26:00,58.7,57.5,30.10,South,191,1.1,2.0,95,0.00,,,0.01,28,TxWx,2013-06-14 13:26:00,
2013-06-14 09:31:00,59.1,57.4,30.11,SW,219,1.1,2.0,94,0.00,,,0.01,29,TxWx,2013-06-14 13:31:00,
2013-06-14 09:36:00,59.3,56.8,30.11,South,184,1.1,2.0,91,0.00,,,0.01,33,TxWx,2013-06-14 13:36:00,
2013-06-14 09:41:00,59.6,57.0,30.10,SW,215,2.4,2.4,91,0.00,,,0.01,33,TxWx,2013-06-14 13:41:00,
2013-06-14 09:46:00,59.7,56.7,30.10,SW,218,1.1,2.0,89,0.00,,,0.01,31,TxWx,2013-06-14 13:46:00,
2013-06-14 09:51:00,60.1,55.6,30.10,SW,221,3.5,3.5,85,0.00,,,0.01,32,TxWx,2013-06-14 13:51:00,
2013-06-14 09:56:00,60.3,53.2,30.10,South,191,2.4,2.4,77,0.00,,,0.01,33,TxWx,2013-06-14 13:56:00,
2013-06-14 10:00:00,60.2,54.8,30.10,West,264,2.4,3.0,82,0.00,,,0.01,34,TxWx,2013-06-14 14:00:00,
2013-06-14 10:05:00,60.5,53.1,30.10,SSE,165,2.4,2.4,76,0.00,,,0.01,35,TxWx,2013-06-14 14:05:00,
2013-06-14 10:10:00,60.9,53.7,30.10,SSW,206,1.1,2.0,77,0.00,,,0.01,36,TxWx,2013-06-14 14:10:00,
2013-06-14 10:15:00,61.0,52.9,30.10,SW,236,2.4,2.4,74,0.00,,,0.01,40,TxWx,2013-06-14 14:15:00,
2013-06-14 10:20:00,61.2,53.5,30.10,SSE,147,1.1,1.1,76,0.00,,,0.01,39,TxWx,2013-06-14 14:20:00,
2013-06-14 10:25:00,61.2,54.6,30.10,WSW,243,1.1,2.0,78,0.00,,,0.01,175,TxWx,2013-06-14 14:25:00,
2013-06-14 10:30:00,61.5,55.7,30.10,SE,127,1.1,1.1,81,0.00,,,0.01,379,TxWx,2013-06-14 14:30:00,
2013-06-14 10:35:00,61.9,55.0,30.10,NNE,33,1.1,2.0,78,0.00,,,0.01,50,TxWx,2013-06-14 14:35:00,
2013-06-14 10:40:00,62.5,54.8,30.10,West,277,1.1,1.1,76,0.00,,,0.01,50,TxWx,2013-06-14 14:40:00,
2013-06-14 10:46:00,62.6,55.0,30.10,SW,216,2.4,2.4,76,0.00,,,0.01,43,TxWx,2013-06-14 14:46:00,
2013-06-14 10:51:00,62.8,55.7,30.10,SSW,192,2.4,2.4,77,0.00,,,0.01,46,TxWx,2013-06-14 14:51:00,
2013-06-14 10:56:00,63.0,55.7,30.11,ENE,76,1.1,1.1,77,0.00,,,0.01,57,TxWx,2013-06-14 14:56:00,
2013-06-14 11:00:00,63.2,56.4,30.12,WNW,302,1.1,2.0,78,0.00,,,0.01,71,TxWx,2013-06-14 15:00:00,
2013-06-14 11:05:00,63.3,56.0,30.12,SW,215,1.1,2.0,77,0.00,,,0.01,147,TxWx,2013-06-14 15:05:00,
2013-06-14 11:11:00,63.4,55.8,30.12,SW,224,1.1,1.1,76,0.00,,,0.01,464,TxWx,2013-06-14 15:11:00,
2013-06-14 11:15:00,63.7,55.5,30.11,West,259,1.1,1.1,74,0.00,,,0.01,462,TxWx,2013-06-14 15:15:00,
2013-06-14 11:20:00,63.8,54.3,30.11,SW,215,2.4,2.4,71,0.00,,,0.01,462,TxWx,2013-06-14 15:20:00,
2013-06-14 11:25:00,63.9,54.1,30.11,WSW,257,2.4,2.4,70,0.00,,,0.01,393,TxWx,2013-06-14 15:25:00,
2013-06-14 11:30:00,64.6,55.9,30.11,West,267,0.0,1.0,73,0.00,,,0.01,359,TxWx,2013-06-14 15:30:00,
2013-06-14 11:35:00,64.8,56.0,30.11,West,274,2.4,2.4,73,0.00,,,0.01,504,TxWx,2013-06-14 15:35:00,
2013-06-14 11:40:00,65.1,54.3,30.11,WSW,246,1.1,1.1,68,0.00,,,0.01,516,TxWx,2013-06-14 15:40:00,
2013-06-14 11:45:00,65.1,54.1,30.11,SSW,198,2.4,2.4,67,0.00,,,0.01,528,TxWx,2013-06-14 15:45:00,
2013-06-14 11:50:00,65.1,53.7,30.11,WNW,288,1.1,2.0,66,0.00,,,0.01,544,TxWx,2013-06-14 15:50:00,
2013-06-14 11:56:00,65.4,54.6,30.11,WSW,251,2.4,2.4,68,0.00,,,0.01,559,TxWx,2013-06-14 15:56:00,
2013-06-14 12:01:00,65.4,53.3,30.12,SSW,192,2.4,2.4,64,0.00,,,0.01,570,TxWx,2013-06-14 16:01:00,
2013-06-14 12:06:00,65.6,52.6,30.12,SW,230,2.4,2.4,62,0.00,,,0.01,586,TxWx,2013-06-14 16:06:00,
2013-06-14 12:11:00,66.1,55.7,30.12,SSE,160,2.4,2.4,69,0.00,,,0.01,601,TxWx,2013-06-14 16:11:00,
2013-06-14 12:16:00,66.7,55.4,30.11,SSW,204,2.4,2.4,67,0.00,,,0.01,617,TxWx,2013-06-14 16:16:00,
2013-06-14 12:21:00,66.8,54.3,30.12,SSW,211,5.0,5.0,64,0.00,,,0.01,631,TxWx,2013-06-14 16:21:00,
2013-06-14 12:25:00,66.4,52.3,30.11,West,280,2.4,2.4,60,0.00,,,0.01,646,TxWx,2013-06-14 16:25:00,
2013-06-14 12:30:00,67.1,54.9,30.11,West,271,1.1,1.1,64,0.00,,,0.01,665,TxWx,2013-06-14 16:30:00,
2013-06-14 12:35:00,67.3,53.0,30.12,West,280,2.4,3.0,60,0.00,,,0.01,679,TxWx,2013-06-14 16:35:00,
2013-06-14 12:40:00,67.5,52.5,30.11,ESE,106,5.0,5.0,58,0.00,,,0.01,695,TxWx,2013-06-14 16:40:00,
2013-06-14 12:45:00,67.6,53.2,30.11,WSW,239,2.4,2.4,59,0.00,,,0.01,711,TxWx,2013-06-14 16:45:00,
2013-06-14 12:51:00,67.8,55.0,30.12,SW,220,2.4,3.0,63,0.00,,,0.01,718,TxWx,2013-06-14 16:51:00,
2013-06-14 12:56:00,68.0,54.5,30.12,NNW,342,1.1,1.1,62,0.00,,,0.01,730,TxWx,2013-06-14 16:56:00,
2013-06-14 13:01:00,68.7,54.1,30.12,South,170,2.4,2.4,59,0.00,,,0.01,742,TxWx,2013-06-14 17:01:00,
2013-06-14 13:06:00,68.2,53.8,30.13,WSW,248,1.1,2.0,60,0.00,,,0.01,755,TxWx,2013-06-14 17:06:00,
2013-06-14 13:11:00,68.0,54.2,30.13,West,269,1.1,2.0,61,0.00,,,0.01,762,TxWx,2013-06-14 17:11:00,
2013-06-14 13:16:00,68.4,56.2,30.13,WSW,245,2.4,2.4,65,0.00,,,0.01,765,TxWx,2013-06-14 17:16:00,
2013-06-14 13:21:00,68.7,54.8,30.13,West,275,1.1,1.1,61,0.00,,,0.01,791,TxWx,2013-06-14 17:21:00,
2013-06-14 13:26:00,69.1,55.1,30.13,South,170,2.4,2.4,60,0.00,,,0.01,802,TxWx,2013-06-14 17:26:00,
2013-06-14 13:31:00,69.1,53.9,30.13,West,262,1.1,2.0,58,0.00,,,0.01,808,TxWx,2013-06-14 17:31:00,
2013-06-14 13:36:00,69.1,54.2,30.13,WSW,249,1.1,1.1,59,0.00,,,0.01,845,TxWx,2013-06-14 17:36:00,
2013-06-14 13:41:00,69.0,52.7,30.13,SSW,212,3.5,5.0,56,0.00,,,0.01,913,TxWx,2013-06-14 17:41:00,
2013-06-14 13:46:00,68.6,53.1,30.14,SSW,194,2.4,2.4,57,0.00,,,0.01,944,TxWx,2013-06-14 17:46:00,
2013-06-14 13:51:00,68.7,54.5,30.13,SSW,207,2.4,2.4,60,0.00,,,0.01,174,TxWx,2013-06-14 17:51:00,
2013-06-14 13:56:00,67.5,55.1,30.14,SW,234,2.4,2.4,64,0.00,,,0.01,759,TxWx,2013-06-14 17:56:00,
2013-06-14 14:01:00,68.3,54.1,30.13,SW,221,5.0,5.0,60,0.00,,,0.01,694,TxWx,2013-06-14 18:01:00,
2013-06-14 14:06:00,69.3,56.0,30.13,West,280,2.4,2.4,62,0.00,,,0.01,133,TxWx,2013-06-14 18:06:00,
2013-06-14 14:11:00,69.1,54.6,30.13,WSW,251,2.4,2.4,59,0.00,,,0.01,147,TxWx,2013-06-14 18:11:00,
2013-06-14 14:16:00,69.1,54.6,30.13,East,85,2.4,2.4,60,0.00,,,0.01,624,TxWx,2013-06-14 18:16:00,
2013-06-14 14:21:00,68.3,53.7,30.13,SW,233,2.4,2.4,59,0.00,,,0.01,795,TxWx,2013-06-14 18:21:00,
2013-06-14 14:26:00,68.5,52.7,30.13,SW,216,3.5,3.5,57,0.00,,,0.01,749,TxWx,2013-06-14 18:26:00,
2013-06-14 14:31:00,69.2,54.7,30.13,SSW,193,1.1,2.0,59,0.00,,,0.01,762,TxWx,2013-06-14 18:31:00,
2013-06-14 14:36:00,69.9,55.9,30.12,SW,235,1.1,2.0,61,0.00,,,0.01,742,TxWx,2013-06-14 18:36:00,
2013-06-14 14:41:00,70.0,53.9,30.12,West,266,1.1,2.0,56,0.00,,,0.01,100,TxWx,2013-06-14 18:41:00,
2013-06-14 14:46:00,70.1,55.1,30.12,West,264,1.1,2.0,59,0.00,,,0.01,537,TxWx,2013-06-14 18:46:00,
2013-06-14 14:51:00,69.5,54.7,30.12,South,187,3.5,3.5,59,0.00,,,0.01,575,TxWx,2013-06-14 18:51:00,
2013-06-14 14:56:00,69.4,54.0,30.12,SW,232,1.1,2.0,58,0.00,,,0.01,673,TxWx,2013-06-14 18:56:00,
2013-06-14 15:01:00,69.9,55.3,30.12,WSW,248,2.4,3.0,59,0.00,,,0.01,653,TxWx,2013-06-14 19:01:00,
2013-06-14 15:06:00,69.8,54.4,30.12,SW,230,3.5,5.0,58,0.00,,,0.01,119,TxWx,2013-06-14 19:06:00,
2013-06-14 15:11:00,70.0,57.7,30.12,North,4,0.0,1.0,65,0.00,,,0.01,656,TxWx,2013-06-14 19:11:00,
2013-06-14 15:16:00,69.5,53.1,30.12,WNW,286,2.4,2.4,56,0.00,,,0.01,622,TxWx,2013-06-14 19:16:00,
2013-06-14 15:21:00,69.9,54.9,30.12,NNW,333,1.1,1.1,59,0.00,,,0.01,593,TxWx,2013-06-14 19:21:00,
2013-06-14 15:26:00,69.0,52.8,30.12,WNW,285,1.1,2.0,56,0.00,,,0.01,586,TxWx,2013-06-14 19:26:00,
2013-06-14 15:31:00,69.6,54.6,30.12,ENE,71,7.4,7.4,58,0.00,,,0.01,568,TxWx,2013-06-14 19:31:00,
2013-06-14 15:36:00,69.4,53.5,30.12,SSW,210,2.4,2.4,57,0.00,,,0.01,568,TxWx,2013-06-14 19:36:00,
2013-06-14 15:41:00,69.7,55.6,30.12,NE,49,2.4,2.4,60,0.00,,,0.01,68,TxWx,2013-06-14 19:41:00,
2013-06-14 15:46:00,68.7,54.2,30.12,SSW,195,1.1,2.0,59,0.00,,,0.01,558,TxWx,2013-06-14 19:46:00,
2013-06-14 15:51:00,69.7,55.8,30.12,SW,228,3.5,3.5,61,0.00,,,0.01,542,TxWx,2013-06-14 19:51:00,
2013-06-14 15:56:00,69.7,55.1,30.12,West,271,1.1,2.0,59,0.00,,,0.01,538,TxWx,2013-06-14 19:56:00,
2013-06-14 16:01:00,70.1,54.8,30.12,West,269,1.1,2.0,58,0.00,,,0.01,570,TxWx,2013-06-14 20:01:00,
2013-06-14 16:06:00,70.3,54.8,30.12,WNW,297,5.0,5.0,57,0.00,,,0.01,580,TxWx,2013-06-14 20:06:00,
2013-06-14 16:11:00,70.6,55.6,30.12,WSW,242,2.4,2.4,59,0.00,,,0.01,570,TxWx,2013-06-14 20:11:00,
2013-06-14 16:16:00,70.8,56.8,30.12,WSW,254,2.4,3.0,61,0.00,,,0.01,423,TxWx,2013-06-14 20:16:00,
2013-06-14 16:21:00,70.0,55.7,30.12,WSW,258,0.0,1.0,60,0.00,,,0.01,560,TxWx,2013-06-14 20:21:00,
2013-06-14 16:26:00,71.0,56.8,30.11,ESE,119,2.4,2.4,61,0.00,,,0.01,579,TxWx,2013-06-14 20:26:00,
2013-06-14 16:31:00,71.2,55.5,30.11,East,94,1.1,2.0,57,0.00,,,0.01,149,TxWx,2013-06-14 20:31:00,
2013-06-14 16:36:00,71.3,57.5,30.11,West,261,2.4,3.0,61,0.00,,,0.01,481,TxWx,2013-06-14 20:36:00,
2013-06-14 16:41:00,71.2,57.3,30.11,SSE,160,3.5,3.5,61,0.00,,,0.01,442,TxWx,2013-06-14 20:41:00,
2013-06-14 16:46:00,71.1,58.1,30.11,NNW,337,1.1,1.1,63,0.00,,,0.01,437,TxWx,2013-06-14 20:46:00,
2013-06-14 16:51:00,71.0,56.6,30.12,NNW,334,2.4,2.4,60,0.00,,,0.01,417,TxWx,2013-06-14 20:51:00,
2013-06-14 16:56:00,70.8,56.4,30.12,SW,231,3.5,3.5,60,0.00,,,0.01,407,TxWx,2013-06-14 20:56:00,
2013-06-14 17:01:00,71.4,58.4,30.12,WNW,296,2.4,2.4,63,0.00,,,0.01,399,TxWx,2013-06-14 21:01:00,
2013-06-14 17:06:00,70.8,55.5,30.12,NNW,328,1.1,2.0,58,0.00,,,0.01,393,TxWx,2013-06-14 21:06:00,
2013-06-14 17:11:00,71.1,57.3,30.11,NW,304,1.1,1.1,61,0.00,,,0.01,431,TxWx,2013-06-14 21:11:00,
2013-06-14 17:16:00,71.7,59.2,30.11,NE,39,1.1,2.0,64,0.00,,,0.01,150,TxWx,2013-06-14 21:16:00,
2013-06-14 17:21:00,71.5,58.3,30.11,WSW,242,2.4,3.0,63,0.00,,,0.01,401,TxWx,2013-06-14 21:21:00,
2013-06-14 17:26:00,70.7,56.0,30.12,WSW,247,2.4,3.0,59,0.00,,,0.01,378,TxWx,2013-06-14 21:26:00,
2013-06-14 17:31:00,71.0,56.8,30.12,SSW,196,2.4,2.4,60,0.00,,,0.01,384,TxWx,2013-06-14 21:31:00,
2013-06-14 17:36:00,71.0,57.1,30.12,WSW,256,2.4,3.0,61,0.00,,,0.01,339,TxWx,2013-06-14 21:36:00,
2013-06-14 17:41:00,70.3,55.2,30.12,WSW,255,2.4,3.0,58,0.00,,,0.01,331,TxWx,2013-06-14 21:41:00,
2013-06-14 17:46:00,70.2,54.9,30.12,WNW,289,2.4,2.4,58,0.00,,,0.01,324,TxWx,2013-06-14 21:46:00,
2013-06-14 17:51:00,69.6,55.9,30.12,SW,233,2.4,2.4,61,0.00,,,0.01,315,TxWx,2013-06-14 21:51:00,
2013-06-14 17:56:00,69.4,56.7,30.12,SW,217,3.5,3.5,64,0.00,,,0.01,305,TxWx,2013-06-14 21:56:00,
2013-06-14 18:01:00,69.2,56.2,30.12,SE,130,2.4,3.0,63,0.00,,,0.01,297,TxWx,2013-06-14 22:01:00,
2013-06-14 18:06:00,69.4,56.1,30.12,SSW,200,5.0,5.0,62,0.00,,,0.01,296,TxWx,2013-06-14 22:06:00,
2013-06-14 18:11:00,69.2,56.8,30.11,WSW,244,1.1,2.0,64,0.00,,,0.01,279,TxWx,2013-06-14 22:11:00,
2013-06-14 18:16:00,68.8,56.5,30.11,SW,230,5.0,5.0,64,0.00,,,0.01,272,TxWx,2013-06-14 22:16:00,
2013-06-14 18:21:00,68.9,56.8,30.11,SW,232,3.5,3.5,65,0.00,,,0.01,262,TxWx,2013-06-14 22:21:00,
2013-06-14 18:26:00,68.6,56.1,30.10,SSW,196,3.5,3.5,64,0.00,,,0.01,256,TxWx,2013-06-14 22:26:00,
2013-06-14 18:31:00,69.2,56.8,30.10,SSW,196,2.4,2.4,64,0.00,,,0.01,252,TxWx,2013-06-14 22:31:00,
2013-06-14 18:36:00,68.5,56.3,30.11,West,269,5.0,6.0,65,0.00,,,0.01,241,TxWx,2013-06-14 22:36:00,
2013-06-14 18:41:00,68.5,56.4,30.11,NNW,328,2.4,2.4,65,0.00,,,0.01,234,TxWx,2013-06-14 22:41:00,
2013-06-14 18:46:00,68.9,56.1,30.11,West,278,3.5,3.5,63,0.00,,,0.01,226,TxWx,2013-06-14 22:46:00,
2013-06-14 18:51:00,69.5,57.5,30.11,West,264,2.4,2.4,65,0.00,,,0.01,217,TxWx,2013-06-14 22:51:00,
2013-06-14 18:56:00,69.2,56.1,30.11,SSW,208,5.0,5.0,63,0.00,,,0.01,208,TxWx,2013-06-14 22:56:00,
2013-06-14 19:01:00,68.8,55.2,30.12,WNW,298,1.1,1.1,61,0.00,,,0.01,210,TxWx,2013-06-14 23:01:00,
2013-06-14 19:06:00,69.4,56.0,30.12,SW,227,2.4,2.4,62,0.00,,,0.01,193,TxWx,2013-06-14 23:06:00,
2013-06-14 19:11:00,68.8,56.5,30.12,North,10,2.4,2.4,64,0.00,,,0.01,185,TxWx,2013-06-14 23:11:00,
2013-06-14 19:16:00,68.7,56.3,30.12,WNW,285,1.1,1.1,64,0.00,,,0.01,87,TxWx,2013-06-14 23:16:00,
2013-06-14 19:21:00,67.9,54.9,30.13,SW,216,1.1,1.1,63,0.00,,,0.01,40,TxWx,2013-06-14 23:21:00,
2013-06-14 19:26:00,67.6,56.0,30.13,SSW,207,1.1,1.1,66,0.00,,,0.01,38,TxWx,2013-06-14 23:26:00,
2013-06-14 19:31:00,67.2,54.8,30.12,NW,321,1.1,2.0,64,0.00,,,0.01,36,TxWx,2013-06-14 23:31:00,
2013-06-14 19:36:00,66.9,55.7,30.13,West,269,0.0,0.0,67,0.00,,,0.01,34,TxWx,2013-06-14 23:36:00,
2013-06-14 19:41:00,66.7,56.4,30.13,NW,323,0.0,0.0,69,0.00,,,0.01,33,TxWx,2013-06-14 23:41:00,
2013-06-14 19:46:00,66.4,57.0,30.13,NNW,328,0.0,0.0,71,0.00,,,0.01,31,TxWx,2013-06-14 23:46:00,
2013-06-14 19:51:00,66.1,55.3,30.13,West,261,1.1,1.1,68,0.00,,,0.01,30,TxWx,2013-06-14 23:51:00,
2013-06-14 19:56:00,66.1,56.1,30.13,SW,230,1.1,2.0,70,0.00,,,0.01,28,TxWx,2013-06-14 23:56:00,
2013-06-14 20:01:00,65.4,56.2,30.13,SW,219,1.1,1.1,72,0.00,,,0.01,26,TxWx,2013-06-15 00:01:00,
2013-06-14 20:06:00,65.3,56.4,30.14,WSW,244,1.1,2.0,72,0.00,,,0.01,31,TxWx,2013-06-15 00:06:00,
2013-06-14 20:11:00,65.1,56.4,30.14,ESE,117,1.1,1.1,73,0.00,,,0.01,33,TxWx,2013-06-15 00:11:00,
2013-06-14 20:16:00,65.2,56.7,30.14,SW,223,2.4,2.4,74,0.00,,,0.01,20,TxWx,2013-06-15 00:16:00,
2013-06-14 20:21:00,65.4,57.2,30.14,WSW,242,0.0,0.0,75,0.00,,,0.01,21,TxWx,2013-06-15 00:21:00,
2013-06-14 20:26:00,65.3,57.7,30.14,WNW,287,1.1,1.1,76,0.00,,,0.01,19,TxWx,2013-06-15 00:26:00,
2013-06-14 20:31:00,64.9,58.3,30.14,NW,320,0.0,0.0,79,0.00,,,0.01,9,TxWx,2013-06-15 00:31:00,
2013-06-14 20:36:00,64.6,58.2,30.14,NW,321,0.0,0.0,79,0.00,,,0.01,3,TxWx,2013-06-15 00:36:00,
2013-06-14 20:41:00,64.2,58.1,30.14,NW,317,0.0,0.0,80,0.00,,,0.01,2,TxWx,2013-06-15 00:41:00,
2013-06-14 20:46:00,63.7,56.5,30.14,NW,317,0.0,0.0,77,0.00,,,0.01,1,TxWx,2013-06-15 00:46:00,
2013-06-14 20:51:00,63.5,56.9,30.14,NW,310,0.0,0.0,79,0.00,,,0.01,1,TxWx,2013-06-15 00:51:00,
2013-06-14 20:56:00,63.1,57.4,30.14,NW,310,0.0,0.0,81,0.00,,,0.01,1,TxWx,2013-06-15 00:56:00,
2013-06-14 21:01:00,62.5,56.9,30.14,WSW,239,0.0,1.0,81,0.00,,,0.01,0,TxWx,2013-06-15 01:01:00,
2013-06-14 21:06:00,62.2,55.9,30.14,WSW,239,1.1,1.1,79,0.00,,,0.01,0,TxWx,2013-06-15 01:06:00,
2013-06-14 21:11:00,62.1,55.3,30.14,WSW,239,1.1,1.1,78,0.00,,,0.01,0,TxWx,2013-06-15 01:11:00,
2013-06-14 21:16:00,62.2,55.2,30.15,South,174,0.0,1.0,78,0.00,,,0.01,0,TxWx,2013-06-15 01:16:00,
2013-06-14 21:21:00,62.1,56.1,30.15,South,175,1.1,1.1,80,0.00,,,0.01,0,TxWx,2013-06-15 01:21:00,
2013-06-14 21:26:00,61.9,55.5,30.15,WNW,296,1.1,1.1,79,0.00,,,0.01,0,TxWx,2013-06-15 01:26:00,
2013-06-14 21:31:00,61.9,54.7,30.15,WNW,290,1.1,1.1,77,0.00,,,0.01,0,TxWx,2013-06-15 01:31:00,
2013-06-14 21:36:00,62.1,55.0,30.15,SW,223,0.0,1.0,77,0.00,,,0.01,0,TxWx,2013-06-15 01:36:00,
2013-06-14 21:41:00,62.0,55.4,30.15,SW,223,0.0,0.0,78,0.00,,,0.01,0,TxWx,2013-06-15 01:41:00,
2013-06-14 21:46:00,61.9,55.4,30.16,SW,224,0.0,0.0,79,0.00,,,0.01,0,TxWx,2013-06-15 01:46:00,
2013-06-14 21:51:00,61.8,55.4,30.16,SW,224,0.0,0.0,79,0.00,,,0.01,0,TxWx,2013-06-15 01:51:00,
2013-06-14 21:56:00,61.8,55.4,30.16,NW,322,0.0,0.0,79,0.00,,,0.01,0,TxWx,2013-06-15 01:56:00,
2013-06-14 22:01:00,61.7,55.4,30.16,North,3,0.0,0.0,79,0.00,,,0.01,0,TxWx,2013-06-15 02:01:00,
2013-06-14 22:06:00,61.5,54.5,30.16,WSW,245,0.0,0.0,77,0.00,,,0.01,0,TxWx,2013-06-15 02:06:00,
2013-06-14 22:11:00,61.6,55.9,30.16,WSW,246,0.0,0.0,81,0.00,,,0.01,0,TxWx,2013-06-15 02:11:00,
2013-06-14 22:16:00,61.1,55.5,30.16,NNE,13,1.1,1.1,81,0.00,,,0.01,0,TxWx,2013-06-15 02:16:00,
2013-06-14 22:21:00,60.9,56.2,30.17,NNE,12,0.0,0.0,84,0.00,,,0.01,0,TxWx,2013-06-15 02:21:00,
2013-06-14 22:26:00,60.7,55.9,30.17,NNE,19,0.0,0.0,84,0.00,,,0.01,0,TxWx,2013-06-15 02:26:00,
2013-06-14 22:31:00,59.9,54.9,30.17,North,9,0.0,0.0,83,0.00,,,0.01,0,TxWx,2013-06-15 02:31:00,
2013-06-14 22:36:00,59.6,55.0,30.17,North,9,0.0,0.0,84,0.00,,,0.01,0,TxWx,2013-06-15 02:36:00,
2013-06-14 22:41:00,59.0,54.8,30.17,North,4,0.0,0.0,86,0.00,,,0.01,0,TxWx,2013-06-15 02:41:00,
2013-06-14 22:46:00,58.9,55.0,30.17,North,4,0.0,0.0,87,0.00,,,0.01,0,TxWx,2013-06-15 02:46:00,
2013-06-14 22:51:00,58.6,55.2,30.17,North,4,0.0,0.0,88,0.00,,,0.01,0,TxWx,2013-06-15 02:51:00,
2013-06-14 22:56:00,58.3,55.1,30.18,North,4,0.0,0.0,89,0.00,,,0.01,0,TxWx,2013-06-15 02:56:00,
2013-06-14 23:01:00,58.2,55.3,30.18,North,4,0.0,0.0,90,0.00,,,0.01,0,TxWx,2013-06-15 03:01:00,
2013-06-14 23:06:00,58.2,55.3,30.18,North,4,0.0,0.0,90,0.00,,,0.01,0,TxWx,2013-06-15 03:06:00,
2013-06-14 23:11:00,58.3,55.5,30.18,NNW,332,0.0,0.0,90,0.00,,,0.01,0,TxWx,2013-06-15 03:11:00,
2013-06-14 23:15:00,58.1,55.5,30.18,NNW,332,0.0,0.0,90,0.00,,,0.01,0,TxWx,2013-06-15 03:15:00,
2013-06-14 23:20:00,58.1,55.5,30.19,West,277,0.0,1.0,91,0.00,,,0.01,0,TxWx,2013-06-15 03:20:00,
2013-06-14 23:25:00,58.1,55.6,30.19,NW,311,0.0,0.0,91,0.00,,,0.01,0,TxWx,2013-06-15 03:25:00,
2013-06-14 23:30:00,57.8,55.4,30.19,NW,310,0.0,0.0,91,0.00,,,0.01,0,TxWx,2013-06-15 03:30:00,
2013-06-14 23:35:00,57.7,55.4,30.19,NNW,334,0.0,0.0,92,0.00,,,0.01,0,TxWx,2013-06-15 03:35:00,
2013-06-14 23:40:00,57.5,55.2,30.19,NNW,334,0.0,0.0,92,0.00,,,0.01,0,TxWx,2013-06-15 03:40:00,
2013-06-14 23:45:00,57.3,55.1,30.19,NNW,330,0.0,0.0,92,0.00,,,0.01,0,TxWx,2013-06-15 03:45:00,
2013-06-14 23:50:00,57.1,54.9,30.19,NNW,345,0.0,0.0,92,0.00,,,0.01,0,TxWx,2013-06-15 03:50:00,
2013-06-14 23:55:00,56.9,55.1,30.19,NNW,345,0.0,0.0,93,0.00,,,0.01,0,TxWx,2013-06-15 03:55:00,